Regional Weather Roundup
Issued by NWS Upton, NY

Home | Current Version | Previous Version | Text Only | Print | Product List | Glossary On
Versions: 1 2 3 4 5 6 7 8 9 10 11 12 13 14 15 16 17 18 19 20 21 22 23 24 25 26 27 28 29 30 31 32 33 34 35 36 37 38 39 40 41 42 43 44 45 46 47 48 49 50
000
ASUS41 KOKX 111504
RWROKX

REGIONAL WEATHER ROUNDUP
NATIONAL WEATHER SERVICE NEW YORK NY
1000 AM EST THU FEB 11 2016

NOTE: "FAIR" INDICATES FEW OR NO CLOUDS BELOW 12,000 FEET WITH NO
SIGNIFICANT WEATHER AND/OR OBSTRUCTIONS TO VISIBILITY.

NYZ071-072-176-178-NJZ106-104-111600-
NEW YORK CITY METRO AREA


CITY           SKY/WX    TMP DP  RH WIND       PRES   REMARKS
CENTRAL PARK   MOSUNNY   24  -2  32 W15G26    29.91S WCI  11
LAGUARDIA APRT MOSUNNY   26   0  32 W23G33    29.91R WCI  11
KENNEDY INTL   MOSUNNY   27  -2  28 W24G37    29.93R WCI  12
NEWARK/LIBERTY PTSUNNY   26  -1  31 W21G32    29.92S WCI  12
BRNX BOT. GARD   N/A     25   1  36 W16       29.90R WCI  12
TETERBORO      MOSUNNY   25  -1  32 NW13G23   29.91R WCI  14
$$

NYZ177-179-078>081-111600-
LONG ISLAND NEW YORK

CITY           SKY/WX    TMP DP  RH WIND       PRES   REMARKS
FARMINGDALE    SUNNY     25   0  33 W14G26    29.89S WCI  13
ISLIP          MOSUNNY   24   2  38 W21G32    29.86R WCI   9
SHIRLEY        SUNNY     25   2  37 W17G26    29.87R WCI  12
RIVERHEAD        N/A     28  -6  22 NW13      29.83R WCI  18
WESTHAMPTON    SUNNY     24   3  40 W20G40    29.86R WCI  10
EAST HAMPTON   FAIR      25   7  45 W18G24    29.81S WCI  12
MONTAUK POINT    N/A     26  13  57 W14G25    29.81R WCI  14
$$

NYZ052-065-067-111600-
HUDSON VALLEY

CITY           SKY/WX    TMP DP  RH WIND       PRES   REMARKS
WHITE PLAINS   MOSUNNY   21   0  39 W20G30    29.85R WCI   6
NEWBURGH       PTSUNNY   21   5  49 NW21G32   29.85R WCI   6
MONTGOMERY     PTSUNNY   21   2  43 NW16G28   29.86R WCI   7
POUGHKEEPSIE   MOSUNNY   23   0  36 NW17G28   29.86R WCI   9
ALBANY         PTSUNNY   20   2  45 W17       29.81S WCI   5
$$

NJZ001-105-106-008-010-013-015-019>022-104-111600-
NEW JERSEY

CITY           SKY/WX    TMP DP  RH WIND       PRES   REMARKS
NEWARK/LIBERTY PTSUNNY   26  -1  31 W21G32    29.92S WCI  12
TETERBORO      MOSUNNY   25  -1  32 NW13G23   29.91R WCI  14
CALDWELL       MOSUNNY   24  -2  32 W16G26    29.92R WCI  11
MORRISTOWN     MOSUNNY   23   1  39 NW14G33   29.92R WCI  11
SOMERVILLE     PTSUNNY   23   4  44 W13G25    29.93S WCI  11
SUSSEX         MOSUNNY   21   1  41 W13G23    29.88R WCI   9
ANDOVER          N/A     21   0  39 NW12G18   29.89R WCI   9
TRENTON        MOSUNNY   23   8  52 W15G25    29.97R WCI  10
MILLVILLE      PTSUNNY   25   6  44 NW22G30   30.03S WCI  10
ATLANTIC CITY  PTSUNNY   27   6  41 W16       30.00R WCI  15
WRIGHTSTOWN    LGT SNOW  21  21  99 W13G23    29.96R FOG     WCI   9
TOMS RIVER     CLOUDY    25   9  50 W25G35    29.98R WCI   9
BELMAR         MOSUNNY   25   3  39 W17G25    29.94S WCI  11
$$

PAZ047>061-062-071-111600-
EASTERN PENNSYLVANIA

CITY           SKY/WX    TMP DP  RH WIND       PRES   REMARKS
PHILADELPHIA   PTSUNNY   25   5  42 W28       30.03R WCI   9
ALLENTOWN      MOSUNNY   21   6  52 W16G24    29.95S WCI   7
SCRANTON       PTSUNNY   17   0  47 W14G25    29.88R WCI   3
$$

CTZ002-004>006-009-010-012-RIZ004-006-007-MAZ004-011-015-111600-
SOUTHERN NEW ENGLAND
 IN CT

CITY           SKY/WX    TMP DP  RH WIND       PRES   REMARKS
BRADLEY INTL   PTSUNNY   22   5  48 NW17      29.78S WCI   8
HARTFORD       MOSUNNY   25   9  50 W14G21    29.81S WCI  13
DANBURY        MOSUNNY   21  -2  36 W18G26    29.84R WCI   6
WTRBRY/OXFORD  MOSUNNY   21  -6  30 MISG      29.79R
BRIDGEPORT     SUNNY     25   1  35 W20G30    29.85R WCI  11
MERIDEN        SUNNY     24   1  36 NW14G24   29.82R WCI  12
NEW HAVEN      SUNNY     24   1  36 W14G23    29.83R WCI  12
CHESTER        FAIR      25   5  42 W7G20     29.79R WCI  17
GROTON         CLOUDY    24  15  68 NW15      29.80R WCI  11
WILLIMANTIC    SUNNY     25   7  46 NW8G20    29.78S WCI  16

 IN RI

CITY           SKY/WX    TMP DP  RH WIND       PRES   REMARKS
PROVIDENCE     FLURRIES  25  14  63 W14       29.76R WCI  13
BLOCK ISLAND   CLOUDY    27  18  69 NW16G26   29.76R WCI  14
WESTERLY       PTSUNNY   26  10  50 NW10G18   29.79R WCI  16

 IN MA

CITY           SKY/WX    TMP DP  RH WIND       PRES   REMARKS
BOSTON         LGT SNOW  25  17  72 W17       29.72R WCI  12
WORCESTER      LGT SNOW  19  10  68 W20G26    29.67R WCI   3
WESTFIELD      CLOUDY    21   5  50 W14G22    29.77S WCI   8
PROVINCETOWN   PTSUNNY   29  21  72 W15       29.71R WCI  18
NANTUCKET      CLOUDY    31  19  61 NW15      29.71S WCI  20
$$

ANZ330-335-338-340-345-350-353-355-111600-
COASTAL MARINE OBSERVATIONS


STATION/POSITION TIME  SKY/WX   TEMP    WIND        PRES    VSBY  WAVE
                                AIR SEA DIR/SP/G                  HT/PER
                 (UTC)          (F)     (DEG/KT/KT) (MB)    (MI)  (FT/S)
NY HARB ENTRANCE NOT AVBL
4S FIRE IS       NOT AVBL
20S FIRE ISLAND  NOT AVBL
GREAT SOUTH BAY  NOT AVBL
23SW MTP         NOT AVBL
HUDSON CANYON    NOT AVBL
KINGS POINT      NOT AVBL
EXECUTION ROCKS  NOT AVBL
CENTRAL LI SOUND NOT AVBL
EASTERN LI SOUND 1400            27 41  300/ 17/ 25   N/A
ROBBINS REEF     1400            23     290/ 23/ 29 1012.4
$$


>>>>>>>>>>>>>>>>>>>>>>>>>>>> KEY <<<<<<<<<<<<<<<<<<<<<<<<<<<
>                                                          <
>     SKY/WX - SKY CONDITION/PRESENT WEATHER               <
>     TMP    - TEMPERATURE IN FAHRENHEIT                   <
>     DP     - DEWPOINT IN FAHRENHEIT                      <
>     RH     - RELATIVE HUMIDITY IN PERCENT                <
>     WIND   - DIRECTION AND SPEED IN MPH                  <
>     PRES   - MEAN SEA LEVEL PRESSURE IN INCHES OF HG     <
>     WCI    - WIND CHILL INDEX                            <
>     VSB    - VISIBILITY IN MILES                         <
>     HX     - HEAT INDEX                                  <
>     TC     - TEMPERATURE IN CELSIUS                      <
>     VRB    - VARIABLE WIND DIRECTION                     <
>                                                          <
>>>>>>>>>>>>>>>>>>>>>>>>>>>> KEY <<<<<<<<<<<<<<<<<<<<<<<<<<<





USA.gov is the U.S. government's official web portal to all federal, state and local government web resources and services.